Weather History for Marshall, MI

Change the Weather History Date:

Wednesday, May 15, 2013

  Actual Average (KBTL) Record (KBTL)
Temperature  
Mean Temperature 68 °F 58 °F  
Max Temperature 78 °F 70 °F 89 °F (1998)
Min Temperature 57 °F 45 °F 35 °F (2002)
Degree Days  
Heating Degree Days 0 8  
Month to date heating degree days 148  
Since 1 July heating degree days 6537  
Cooling Degree Days 2 1  
Month to date cooling degree days 9  
Year to date cooling degree days 16  
Growing Degree Days 18 (Base 50)    
Moisture  
Dew Point 48 °F    
Average Humidity 43    
Maximum Humidity 67    
Minimum Humidity 28    
Precipitation  
Precipitation 0.00 in 0.13 in 1.69 in (2001)
Month to date precipitation 1.74  
Year to date precipitation 9.45  
Sea Level Pressure  
Sea Level Pressure 29.74 in    
Wind  
Wind Speed 9 mph (West)    
Max Wind Speed 18 mph    
Max Gust Speed 25 mph    
Visibility 10 miles    
Events Rain    
T = Trace of Precipitation, MM = Missing Value Source: NWS Daily Summary

Daily Weather History Graph

Daily Weather History Graph

Search for Another Location

Airport:

Trip Planner

Search our weather history database for the weather conditions in past years. The results will help you decide how hot, cold, wet, or windy it might be!

Date:

Astronomy

May. 15, 2013 Rise Set
Actual Time 6:18 AM EDT 8:54 PM EDT
Civil Twilight 5:46 AM EDT 9:26 PM EDT
Nautical Twilight 5:06 AM EDT 10:07 PM EDT
Astronomical Twilight 4:20 AM EDT 10:52 PM EDT
Moon 10:54 AM EDT (5/15) 12:39 AM EDT (5/15)
Length of Visible Light 15h 40m
Length of Day
14h 36m
Waxing Crescent, 26% of the Moon is Illuminated
May 15
Waxing Crescent
May 18
First Quarter
May 25
Full
May 31
Last Quarter
Jun 8
New

Hourly Weather History & Observations

Time (EDT) Temp. Dew Point Humidity Pressure Visibility Wind Dir Wind Speed Gust Speed Precip Events Conditions
12:14 AM 65.7 °F 52.7 °F 63% 29.72 in 10.0 mi Calm Calm - N/A   Clear
12:34 AM 66.7 °F 51.4 °F 58% 29.70 in 10.0 mi SSE 4.6 mph - N/A   Clear
12:53 AM 68.0 °F 51.3 °F 55% 29.68 in 10.0 mi South 5.8 mph - N/A   Clear
1:14 AM 70.7 °F 52.5 °F 52% 29.68 in 10.0 mi SSW 6.9 mph - N/A   Scattered Clouds
1:34 AM 72.1 °F 56.3 °F 57% 29.66 in 10.0 mi SSW 15.0 mph 21.9 mph N/A   Mostly Cloudy
1:53 AM 73.4 °F 58.1 °F 59% 29.65 in 10.0 mi South 9.2 mph 16.1 mph N/A Rain Light Rain
2:13 AM 73.6 °F 58.5 °F 59% 29.64 in 10.0 mi SSW 11.5 mph - N/A   Scattered Clouds
2:34 AM 73.2 °F 59.0 °F 61% 29.63 in 10.0 mi SSW 10.4 mph 17.3 mph N/A   Clear
2:53 AM 72.3 °F 59.2 °F 63% 29.64 in 10.0 mi SW 10.4 mph - N/A   Clear
3:14 AM 72.0 °F 59.4 °F 64% 29.63 in 10.0 mi SSW 8.1 mph - N/A   Clear
3:34 AM 71.1 °F 59.2 °F 66% 29.62 in 10.0 mi SSW 8.1 mph - N/A   Clear
3:53 AM 70.7 °F 59.2 °F 67% 29.61 in 10.0 mi SSW 8.1 mph - N/A   Clear
4:14 AM 70.7 °F 58.6 °F 66% 29.61 in 10.0 mi SW 10.4 mph - N/A   Clear
4:34 AM 70.9 °F 58.5 °F 65% 29.61 in 10.0 mi SW 10.4 mph - N/A   Clear
4:53 AM 71.4 °F 57.7 °F 62% 29.61 in 10.0 mi SW 10.4 mph 17.3 mph N/A   Clear
5:14 AM 71.1 °F 57.0 °F 61% 29.62 in 10.0 mi WSW 10.4 mph - N/A   Clear
5:33 AM 71.1 °F 56.5 °F 60% 29.62 in 10.0 mi WSW 9.2 mph - N/A   Clear
5:53 AM 70.9 °F 55.6 °F 58% 29.63 in 10.0 mi WSW 11.5 mph - N/A   Clear
6:14 AM 71.1 °F 55.0 °F 57% 29.63 in 10.0 mi WSW 11.5 mph - N/A   Clear
6:33 AM 70.9 °F 54.7 °F 56% 29.64 in 10.0 mi WSW 12.7 mph - N/A   Clear
6:53 AM 70.9 °F 54.5 °F 56% 29.65 in 10.0 mi West 12.7 mph - N/A   Clear
7:14 AM 71.6 °F 54.1 °F 54% 29.66 in 10.0 mi West 13.8 mph 18.4 mph N/A   Clear
7:33 AM 72.1 °F 54.0 °F 53% 29.67 in 10.0 mi West 15.0 mph 19.6 mph N/A   Clear
7:53 AM 72.7 °F 54.3 °F 52% 29.68 in 10.0 mi West 15.0 mph 20.7 mph N/A   Clear
8:14 AM 72.0 °F 54.3 °F 54% 29.69 in 10.0 mi West 13.8 mph 19.6 mph N/A   Clear
8:33 AM 72.1 °F 53.2 °F 51% 29.70 in 10.0 mi West 13.8 mph 19.6 mph N/A   Clear
8:53 AM 73.6 °F 50.5 °F 44% 29.71 in 10.0 mi West 13.8 mph 19.6 mph N/A   Clear
9:14 AM 73.2 °F 48.0 °F 41% 29.71 in 10.0 mi WNW 12.7 mph 19.6 mph N/A   Clear
9:28 AM 72.5 °F 48.0 °F 42% 29.72 in 10.0 mi WNW 10.4 mph 20.7 mph N/A   Clear
9:55 AM 73.4 °F 48.2 °F 41% 29.73 in 10.0 mi WNW 8.1 mph 20.7 mph N/A   Clear
10:15 AM 73.4 °F 48.2 °F 41% 29.73 in 10.0 mi WNW 12.7 mph 18.4 mph N/A   Clear
10:35 AM 75.2 °F 46.4 °F 36% 29.73 in 10.0 mi WNW 8.1 mph 21.9 mph N/A   Clear
10:55 AM 75.2 °F 46.4 °F 36% 29.74 in 10.0 mi NW 12.7 mph 18.4 mph N/A   Clear
11:15 AM 75.2 °F 46.4 °F 36% 29.74 in 10.0 mi WNW 16.1 mph 20.7 mph N/A   Clear
11:35 AM 75.2 °F 46.4 °F 36% 29.75 in 10.0 mi WNW 13.8 mph 23.0 mph N/A   Clear
11:55 AM 75.2 °F 46.4 °F 36% 29.77 in 10.0 mi WNW 18.4 mph 24.2 mph N/A   Clear
12:15 PM 75.2 °F 46.4 °F 36% 29.77 in 10.0 mi WNW 12.7 mph 18.4 mph N/A   Scattered Clouds
12:35 PM 77.0 °F 46.4 °F 34% 29.78 in 10.0 mi WNW 12.7 mph 19.6 mph N/A   Clear
12:55 PM 77.0 °F 46.4 °F 34% 29.78 in 10.0 mi WNW 12.7 mph 21.9 mph N/A   Clear
1:15 PM 78.8 °F 46.4 °F 32% 29.78 in 10.0 mi WNW 16.1 mph 23.0 mph N/A   Scattered Clouds
1:35 PM 77.0 °F 44.6 °F 32% 29.79 in 10.0 mi NW 17.3 mph 25.3 mph N/A   Clear
1:49 PM 76.6 °F 45.1 °F 33% 29.79 in 10.0 mi WNW 16.1 mph 23.0 mph N/A   Clear
1:53 PM 76.8 °F 45.1 °F 32% 29.79 in 10.0 mi West 13.8 mph 23.0 mph N/A   Clear
2:14 PM 77.5 °F 45.0 °F 31% 29.78 in 10.0 mi NW 11.5 mph 19.6 mph N/A   Clear
2:33 PM 78.4 °F 46.0 °F 32% 29.78 in 10.0 mi West 15.0 mph 20.7 mph N/A   Clear
2:53 PM 78.1 °F 44.6 °F 30% 29.78 in 10.0 mi WNW 15.0 mph 19.6 mph N/A   Clear
3:14 PM 78.1 °F 44.6 °F 30% 29.79 in 10.0 mi West 15.0 mph 24.2 mph N/A   Clear
3:33 PM 77.9 °F 45.3 °F 31% 29.79 in 10.0 mi WNW 15.0 mph 23.0 mph N/A   Clear
3:53 PM 77.0 °F 45.1 °F 32% 29.79 in 10.0 mi WNW 12.7 mph 20.7 mph N/A   Clear
4:14 PM 77.0 °F 45.1 °F 32% 29.79 in 10.0 mi WNW 9.2 mph 20.7 mph N/A   Clear
4:33 PM 77.9 °F 44.1 °F 30% 29.80 in 10.0 mi West 17.3 mph 20.7 mph N/A   Clear
4:54 PM 77.0 °F 43.3 °F 30% 29.80 in 10.0 mi West 16.1 mph 21.9 mph N/A   Clear
5:13 PM 77.0 °F 43.5 °F 30% 29.79 in 10.0 mi WNW 15.0 mph 19.6 mph N/A   Clear
5:33 PM 77.2 °F 43.5 °F 30% 29.79 in 10.0 mi West 12.7 mph 21.9 mph N/A   Clear
5:54 PM 76.8 °F 42.3 °F 29% 29.79 in 10.0 mi West 12.7 mph 19.6 mph N/A   Clear
6:13 PM 76.3 °F 41.9 °F 29% 29.79 in 10.0 mi West 13.8 mph - N/A   Clear
6:33 PM 75.7 °F 40.6 °F 28% 29.79 in 10.0 mi West 15.0 mph - N/A   Clear
6:53 PM 75.0 °F 41.9 °F 30% 29.79 in 10.0 mi West 12.7 mph 16.1 mph N/A   Clear
7:13 PM 74.5 °F 42.1 °F 31% 29.79 in 10.0 mi West 6.9 mph - N/A   Clear
7:34 PM 71.6 °F 42.1 °F 34% 29.79 in 10.0 mi WNW 6.9 mph - N/A   Clear
7:53 PM 71.6 °F 41.5 °F 34% 29.79 in 10.0 mi WNW 4.6 mph - N/A   Clear
8:13 PM 71.4 °F 43.0 °F 36% 29.79 in 10.0 mi WNW 4.6 mph - N/A   Clear
8:34 PM 70.0 °F 41.0 °F 35% 29.81 in 10.0 mi WNW 8.1 mph - N/A   Clear
8:53 PM 69.3 °F 41.0 °F 36% 29.80 in 10.0 mi WNW 4.6 mph - N/A   Clear
9:13 PM 68.7 °F 36.7 °F 31% 29.82 in 10.0 mi West 6.9 mph - N/A   Clear
9:33 PM 66.7 °F 36.7 °F 33% 29.81 in 10.0 mi WNW 3.5 mph - N/A   Clear
9:54 PM 66.2 °F 37.4 °F 35% 29.81 in 10.0 mi Calm Calm - N/A   Clear
10:13 PM 65.1 °F 37.6 °F 36% 29.83 in 10.0 mi Calm Calm - N/A   Clear
10:33 PM 63.9 °F 40.6 °F 43% 29.84 in 10.0 mi Calm Calm - N/A   Clear
10:53 PM 63.7 °F 37.9 °F 39% 29.84 in 10.0 mi Calm Calm - N/A   Clear
11:14 PM 61.0 °F 37.4 °F 42% 29.83 in 10.0 mi Calm Calm - N/A   Clear
11:33 PM 57.7 °F 40.8 °F 53% 29.82 in 10.0 mi Calm Calm - N/A   Clear
11:53 PM 57.9 °F 39.7 °F 51% 29.83 in 10.0 mi Calm Calm - N/A   Clear